| time (UTC) | temp C | wind direction | speed KPH | gust KPH | rain 1hr cm | rain 24hr cm | rain mn cm | humidity % | barometer mb |
| 20260504201503 | 16 | 236 | 11.3 | 25.7 | 0.00 | 0.00 | 0.00 | 63 | 1010.4 |
| 20260504200006 | 16 | 230 | 8.0 | 19.3 | 0.00 | 0.00 | 0.00 | 63 | 1010.6 |
| 20260504193005 | 17 | 218 | 8.0 | 22.5 | 0.00 | 0.00 | 0.00 | 60 | 1010.7 |
| 20260504191503 | 16 | 228 | 14.5 | 32.2 | 0.00 | 0.00 | 0.00 | 61 | 1010.9 |
| 20260504184503 | 17 | 231 | 6.4 | 20.9 | 0.00 | 0.00 | 0.00 | 59 | 1011.2 |
| 20260504183005 | 17 | 195 | 8.0 | 20.9 | 0.00 | 0.00 | 0.00 | 60 | 1011.3 |
| 20260504181504 | 17 | 237 | 6.4 | 17.7 | 0.00 | 0.00 | 0.00 | 58 | 1011.4 |
| 20260504180007 | 17 | 196 | 6.4 | 17.7 | 0.00 | 0.00 | 0.00 | 58 | 1011.6 |
| 20260504174503 | 17 | 196 | 4.8 | 11.3 | 0.00 | 0.00 | 0.00 | 58 | 1011.6 |
| 20260504173004 | 17 | 196 | 4.8 | 12.9 | 0.00 | 0.00 | 0.00 | 57 | 1011.8 |
| 20260504081502 | 10 | 236 | 4.8 | 12.9 | 0.00 | 0.00 | 0.00 | 56 | 1013.7 |
| 20260504030011 | 12 | 225 | 1.6 | 4.8 | 0.00 | 0.00 | 0.00 | 53 | 1012.3 |
| 20260504024508 | 12 | 272 | 1.6 | 4.8 | 0.00 | 0.00 | 0.00 | 55 | 1012.3 |
| 20260504023005 | 12 | 243 | 3.2 | 4.8 | 0.00 | 0.00 | 0.00 | 54 | 1012.3 |
| 20260504021507 | 12 | 243 | 3.2 | 6.4 | 0.00 | 0.00 | 0.00 | 52 | 1012.4 |
| 20260504014504 | 12 | 224 | 1.6 | 3.2 | 0.00 | 0.00 | 0.00 | 43 | 1012.2 |
| 20260504013004 | 12 | 225 | 1.6 | 3.2 | 0.00 | 0.00 | 0.00 | 41 | 1012.1 |
| 20260504011505 | 13 | 251 | 0.0 | 1.6 | 0.00 | 0.00 | 0.00 | 38 | 1012.0 |
| 20260504004504 | 13 | 257 | 0.0 | 1.6 | 0.00 | 0.00 | 0.00 | 32 | 1011.6 |
| 20260504003004 | 14 | 287 | 0.0 | 1.6 | 0.00 | 0.00 | 0.00 | 30 | 1011.4 |
| 20260504000005 | 15 | 305 | 3.2 | 12.9 | 0.00 | 0.00 | 0.00 | 29 | 1011.0 |
| 20260503234505 | 15 | 304 | 4.8 | 16.1 | 0.00 | 0.00 | 0.00 | 28 | 1010.8 |
| 20260503233003 | 15 | 283 | 4.8 | 16.1 | 0.00 | 0.00 | 0.00 | 27 | 1010.7 |
| 20260503231505 | 15 | 319 | 4.8 | 14.5 | 0.00 | 0.00 | 0.00 | 26 | 1010.6 |
| 20260503230005 | 15 | 314 | 8.0 | 17.7 | 0.00 | 0.00 | 0.00 | 26 | 1010.5 |
| 20260503224504 | 15 | 278 | 4.8 | 12.9 | 0.00 | 0.00 | 0.00 | 25 | 1010.6 |
| 20260503223004 | 15 | 282 | 9.7 | 24.1 | 0.00 | 0.00 | 0.00 | 26 | 1010.5 |
| 20260503221506 | 15 | 311 | 8.0 | 16.1 | 0.00 | 0.00 | 0.00 | 26 | 1010.4 |
| 20260503214504 | 15 | 294 | 9.7 | 25.7 | 0.00 | 0.00 | 0.00 | 26 | 1010.4 |
| 20260503213004 | 15 | 290 | 8.0 | 25.7 | 0.00 | 0.00 | 0.00 | 26 | 1010.2 |
| 20260503211505 | 15 | 288 | 8.0 | 22.5 | 0.00 | 0.00 | 0.00 | 28 | 1010.0 |
| 20260503210006 | 15 | 296 | 9.7 | 24.1 | 0.00 | 0.00 | 0.00 | 27 | 1010.0 |
| 20260503204505 | 15 | 333 | 9.7 | 29.0 | 0.00 | 0.00 | 0.00 | 28 | 1010.1 |
| 20260503203003 | 14 | 318 | 11.3 | 27.4 | 0.00 | 0.00 | 0.00 | 28 | 1010.1 |